Weather Roundup
Issued by NWS

Home | Current Version | Previous Version | Text Only | Print | Product List | Glossary On
Versions: 1 2 3 4 5 6 7 8 9 10 11 12 13 14 15 16 17 18 19 20 21 22 23 24 25 26 27 28 29 30 31 32 33 34 35 36 37 38 39 40 41 42 43 44 45 46 47 48 49 50
000
NZUS93 KARX 232159
HRRWXR

CURRENT HOURLY OBSERVATIONS ACROSS
MUCH OF THE UPPER MISSISSIPPI VALLEY
NATIONAL WEATHER SERVICE LA CROSSE WI
400 PM CST SUN NOV 23 2014


...SOUTHEAST MINNESOTA...


CITY           SKY/WX    TMP DP  RH WIND       PRES   REMARKS
ROCHESTER      FOG       48  47  96 S6        29.35F VSB 1/4
ROCHESTER/MAYO CLOUDY    48  48  99 SE3       29.34F
WINONA         CLOUDY    48  46  93 CALM      29.36S
AUSTIN         DRIZZLE   43  43 100 NW16      29.36R
ALBERT LEA     CLOUDY    43  43 100 NW9       29.37S
DODGE CENTER   RAIN      45  45 100 NW13      29.36R VSB 3/4
PRESTON        FOG       47  46  97 S5        29.35F VSB<1/4
OWATONNA       CLOUDY    43  39  87 NW14      29.38S
FARIBAULT      CLOUDY    43  39  87 NW8       29.39R
$$

...ELSEWHERE IN MINNESOTA...


CITY           SKY/WX    TMP DP  RH WIND       PRES   REMARKS
MINNEAPOLIS    CLOUDY    41  36  82 NW13      29.39S
INTNL FALLS    CLOUDY    36  32  85 CALM      29.38S
DULUTH         CLOUDY    39  35  86 NW6       29.36F FOG     WCI  35
RED WING         N/A     48  46  93 CALM      29.34F VSB 1/4
REDWOOD FALLS  CLOUDY    40  35  83 NW12      29.45S WCI  33
MANKATO        CLOUDY    41  36  81 NW14G21   29.41S
WORTHINGTON    CLOUDY    39  34  81 NW18      29.48R WCI  30
FAIRMONT       CLOUDY    41  36  81 NW21G29   29.42R
$$

...SOUTHWEST WISCONSIN...


CITY           SKY/WX    TMP DP  RH WIND       PRES   REMARKS
LA CROSSE      LGT RAIN  49  48  97 SE5       29.36S VSB 1/4
PRAIRIE DU CHI LGT RAIN  49  47  94 E7        29.37S
BOSCOBEL       LGT RAIN  50  47  89 VRB6      29.38F FOG
LONE ROCK      NOT AVBL
PLATTEVILLE    CLOUDY    47  47  97 E9        29.38F
FORT MC COY    CLOUDY    49  48  97 E5        29.38F
CAMP DOUGLAS   DRIZZLE   48  48 100 E6        29.39F FOG
VIROQUA        CLOUDY    48  48 100 SE7       29.36F
WIS DELLS      LGT RAIN  46  45  93 CALM      29.40F
$$

...ELSEWHERE IN WISCONSIN...


CITY           SKY/WX    TMP DP  RH WIND       PRES   REMARKS
MILWAUKEE      LGT RAIN  48  45  89 S10       29.47F FOG
MADISON        LGT RAIN  48  47  96 S8        29.42F VSB 1
GREEN BAY      LGT RAIN  45  44  97 SE7       29.45F VSB 1
EAU CLAIRE     NOT AVBL
BLACK RVR FLS  RAIN      50  50 100 CALM      29.36F
MEDFORD        FOG       43  43 100 SE6       29.39S VSB<1/4
WAUSAU         LGT RAIN  46  45  96 E5        29.39F VSB 1/4
WIS RAPIDS     CLOUDY    49  46  90 SE6       29.41F FOG
MARSHFIELD     LGT RAIN  47  46  97 S5        29.39F VSB 1/4
RICE LAKE      FOG       43  42  97 CALM      29.37F VSB<1/4
$$

...NORTHEAST IOWA...


CITY           SKY/WX    TMP DP  RH WIND       PRES   REMARKS
DECORAH        CLOUDY    48  48 100 S5        29.35S FOG
MASON CITY     CLOUDY    43  41  93 NW17      29.39R
CHARLES CITY   FOG       50  50 100 S5        29.35S VSB 1/4
OELWEIN        CLOUDY    48  48 100 SE7       29.35S
$$

...ELSEWHERE IN IOWA...


CITY           SKY/WX    TMP DP  RH WIND       PRES   REMARKS
DES MOINES     CLOUDY    48  45  89 N13G24    29.37R FOG
IOWA CITY      CLOUDY    50  32  50 SE5       29.35F FOG
FORT DODGE     CLOUDY    45  39  81 N12G22    29.42R
$$

...NORTHERN ILLINOIS...


CITY           SKY/WX    TMP DP  RH WIND       PRES   REMARKS
CHICAGO-OHARE  LGT RAIN  50  48  93 SE12      29.46F FOG
CHICAGO-MIDWAY LGT RAIN  52  50  93 SE10      29.46F FOG
MOLINE         LGT RAIN  52  51  97 S7        29.35F FOG
ROCKFORD       LGT RAIN  49  47  93 SE12      29.44F FOG
PEORIA         LGT RAIN  52  49  89 SE9       29.38F FOG
$$

NOTE: "FAIR" INDICATES FEW OR NO CLOUDS BELOW 12,000 FEET WITH NO
SIGNIFICANT WEATHER AND/OR OBSTRUCTIONS TO VISIBILITY. WIND
SPEEDS ARE IN MILES-PER-HOUR.



USA.gov is the U.S. government's official web portal to all federal, state and local government web resources and services.